Flag for Indonesia Weather past 2 weeks in Manado, North Sulawesi, Indonesia

Now
75 °F

Passing clouds.


Feels Like: 75 °F
Forecast: 75 / 89 °F
Wind: 2 mph from East

Location: Menado / Dr. Sam Ratulangi

Current Time: Sep 16, 2014 at 10:20:25 PM

Latest Report: Sep 16, 2014 at 10:00 PM


Visibility: 6 mi

Pressure: 29.86 "Hg

Humidity: 89%

Dew point: 72 °F

Location of ManadoLocation

Historic Weather in Manado — Graph

°F

Manado temperature yesterday

Maximum temperature yesterday: 91 °F (at 12:30 PM)
Minimum temperature yesterday: 66 °F (at 3:30 AM)
Average temperature yesterday: 80 °F

Past Weeks' High & Low Weather Summary

 TemperatureHumidityPressure
High93 °F (Sep 13, 11:30 AM)100% (Sep 8, 11:30 PM)29.95 "Hg (Sep 8, 11:30 PM)
Low66 °F (Sep 15, 3:30 AM)23% (Sep 13, 11:30 AM)29.71 "Hg (Sep 5, 3:00 PM)
Average81 °F68%29.83 "Hg
* Reported Sep 1 9:00 PM — Sep 16 9:00 PM, Manado, Weather by CustomWeather, © 2014

Note: Actual official high and low records may vary slightly from our data, if they occured in-between our weather recording intervals... More about our weather records

Advertising

Manado weather history for previous 24 hours

 ConditionsComfort  
Time TempWeatherWind HumidityBarometerVisibility
9:00 PM
Sep 16
77 °FPassing clouds.6 mph83%29.83 "Hg6 mi
8:30 PM77 °FPassing clouds.6 mph83%29.83 "Hg6 mi
8:00 PM79 °FPassing clouds.7 mph79%29.83 "Hg6 mi
7:30 PM79 °FPassing clouds.7 mph79%29.83 "Hg6 mi
7:00 PM79 °FPassing clouds.7 mph79%29.80 "Hg6 mi
6:30 PM79 °FPassing clouds.6 mph79%29.80 "Hg6 mi
6:00 PM81 °FPassing clouds.6 mph74%29.77 "Hg6 mi
5:30 PM81 °FPassing clouds.3 mph74%29.77 "HgN/A
5:00 PM82 °FPassing clouds.3 mph66%29.77 "HgN/A
4:30 PM86 °FPassing clouds.6 mph62%29.74 "HgN/A
4:00 PM86 °FPassing clouds.8 mph62%29.74 "HgN/A
3:30 PM88 °FPassing clouds.9 mph59%29.74 "HgN/A
3:00 PM88 °FPassing clouds.8 mph59%29.74 "HgN/A
2:30 PM90 °FPassing clouds.6 mph55%29.74 "HgN/A
2:00 PM91 °FPassing clouds.6 mph52%29.74 "HgN/A
1:30 PM91 °FPassing clouds.6 mph52%29.77 "HgN/A
1:00 PM91 °FPassing clouds.6 mph52%29.77 "HgN/A
12:30 PM90 °FPassing clouds.6 mph52%29.80 "HgN/A
12:00 PM91 °FPassing clouds.5 mph49%29.80 "HgN/A
11:30 AM91 °FPassing clouds.3 mph46%29.83 "HgN/A
11:00 AM91 °FPassing clouds.5 mph41%29.83 "HgN/A
10:30 AM91 °FPassing clouds.2 mph41%29.83 "HgN/A
10:00 AM88 °FPassing clouds.3 mph49%29.86 "HgN/A
9:00 AM86 °FPassing clouds.2 mph52%29.89 "HgN/A
8:30 AM84 °FPassing clouds.2 mph55%29.86 "HgN/A
8:00 AM82 °FPassing clouds.2 mph58%29.86 "HgN/A
7:30 AM81 °FPassing clouds.No wind62%29.86 "HgN/A
7:00 AM77 °FPassing clouds.3 mph69%29.86 "HgN/A
6:30 AM73 °FPassing clouds.3 mph78%29.83 "HgN/A
6:00 AM70 °FPassing clouds.2 mph88%29.83 "HgN/A
5:30 AM68 °FPassing clouds.2 mph94%29.83 "HgN/A
5:00 AM68 °FPassing clouds.2 mph94%29.80 "HgN/A
4:30 AM68 °FPassing clouds.No wind94%29.80 "HgN/A
4:00 AM68 °FPassing clouds.2 mph94%29.80 "HgN/A
3:30 AM70 °FPassing clouds.5 mph94%29.80 "HgN/A
3:00 AM70 °FPassing clouds.No wind88%29.80 "HgN/A
2:30 AM70 °FPassing clouds.5 mph88%29.83 "Hg6 mi
2:00 AM70 °FPassing clouds.3 mph94%29.83 "Hg6 mi
1:30 AM70 °FPassing clouds.3 mph88%29.83 "Hg6 mi
1:00 AM70 °FPassing clouds.3 mph88%29.83 "Hg6 mi
12:30 AM73 °FPassing clouds.5 mph78%29.83 "Hg6 mi
12:00 AM73 °FPassing clouds.5 mph83%29.86 "Hg6 mi
11:30 PM
Sep 15
73 °FPassing clouds.6 mph83%29.86 "Hg6 mi
11:00 PM73 °FPassing clouds.5 mph83%29.86 "Hg6 mi
10:00 PM75 °FPassing clouds.7 mph74%29.86 "Hg6 mi
Weather by CustomWeather, © 2014

See weather overviewHow to use our weather pages